Voltar ao catálogo

KUIPER-00147

AtivoComunicaçõesLEO
NORAD 65768·PAYLOAD·🇺🇸 United States

Lançado Sep 25, 2025 de Cape Canaveral Space Force Station

Loading…

Próximas Passagens (próximas 24 horas)

TLE

AtualizadoSource: CelesTrak SupGP

Época: Sep 14, 2026, 19:30 UTC

1 65768C 25217G   26257.81309028 -.00000830  00000+0 -10860-3 0  2579
2 65768  51.8976 284.2747 0000480  26.0587  26.4509 14.79937056    12

Acompanhe KUIPER-00147 em tempo real com AllMySat

Download on the App Store